AFL1MF EFHK-ULLI

Flight info

Callsign AFL1MF
Flight time 0h 38m
Altitude 31000
Route ARVEP T82 RATMU DCT OLEMA L24 AKARU AKARU1B
Aircraft A320/M-SDE3FGHIRWY/LB1

Departure

Time 2026-04-23 18:46
Airport Helsinki Vantaa Airport (EFHK)

Arrival

Time 2026-04-23 19:24
Airport Pulkovo Airport (ULLI)
Time Latitude Longitude Altitude Speed Heading
2026-04-23 18:25 60.31673 24.97204 176 ft 0 kts 245°
2026-04-23 18:33 60.31678 24.97226 176 ft 3 kts 245°
2026-04-23 18:33 60.31686 24.97263 176 ft 3 kts 251°
2026-04-23 18:33 60.31691 24.97301 176 ft 3 kts 271°
2026-04-23 18:34 60.31688 24.97332 176 ft 2 kts 321°
2026-04-23 18:34 60.31684 24.97339 176 ft 0 kts 333°
2026-04-23 18:37 60.31689 24.97334 176 ft 5 kts 333°
2026-04-23 18:37 60.31759 24.97263 176 ft 16 kts 333°
2026-04-23 18:37 60.31863 24.97157 174 ft 18 kts 333°
2026-04-23 18:37 60.31949 24.97178 174 ft 12 kts 18°
2026-04-23 18:38 60.32046 24.97118 173 ft 18 kts 332°
2026-04-23 18:38 60.32148 24.97010 171 ft 18 kts 333°
2026-04-23 18:38 60.32243 24.96911 170 ft 20 kts 332°
2026-04-23 18:38 60.32294 24.96804 168 ft 17 kts 273°
2026-04-23 18:39 60.32193 24.96543 166 ft 19 kts 229°
2026-04-23 18:39 60.32100 24.96334 165 ft 21 kts 227°
2026-04-23 18:39 60.32005 24.96125 163 ft 22 kts 227°
2026-04-23 18:39 60.31899 24.95880 161 ft 24 kts 230°
2026-04-23 18:40 60.31781 24.95630 160 ft 25 kts 226°
2026-04-23 18:40 60.31663 24.95374 158 ft 26 kts 228°
2026-04-23 18:40 60.31543 24.95107 157 ft 26 kts 228°
2026-04-23 18:40 60.31423 24.94847 155 ft 27 kts 227°
2026-04-23 18:41 60.31300 24.94575 153 ft 26 kts 228°
2026-04-23 18:41 60.31194 24.94333 152 ft 20 kts 229°
2026-04-23 18:41 60.31100 24.94131 151 ft 20 kts 226°
2026-04-23 18:41 60.31049 24.94017 150 ft 8 kts 229°
2026-04-23 18:42 60.31034 24.93896 149 ft 10 kts 278°
2026-04-23 18:42 60.31040 24.93860 149 ft 0 kts 293°
2026-04-23 18:43 60.31044 24.93842 149 ft 5 kts 293°
2026-04-23 18:43 60.31079 24.93745 148 ft 12 kts 312°
2026-04-23 18:43 60.31152 24.93698 146 ft 13 kts 19°
2026-04-23 18:44 60.31172 24.93728 147 ft 0 kts 46°
2026-04-23 18:45 60.31209 24.93805 149 ft 33 kts 46°
2026-04-23 18:46 60.31544 24.94542 153 ft 106 kts 48°
2026-04-23 18:46 60.32167 24.95906 164 ft 160 kts 48°
2026-04-23 18:46 60.32983 24.97735 435 ft 183 kts 44°
2026-04-23 18:46 60.33843 24.99662 983 ft 194 kts 43°
2026-04-23 18:47 60.34757 25.01665 1550 ft 204 kts 41°
2026-04-23 18:47 60.35749 25.03793 2174 ft 212 kts 40°
2026-04-23 18:47 60.36775 25.05969 2854 ft 218 kts 40°
2026-04-23 18:47 60.37832 25.08224 3387 ft 232 kts 41°
2026-04-23 18:48 60.38908 25.10877 3687 ft 262 kts 59°
2026-04-23 18:48 60.39285 25.14628 4119 ft 288 kts 98°
2026-04-23 18:48 60.38769 25.18552 4877 ft 295 kts 113°
2026-04-23 18:48 60.38100 25.22483 5772 ft 300 kts 105°
2026-04-23 18:49 60.37810 25.26674 6690 ft 304 kts 94°
2026-04-23 18:49 60.37742 25.30937 7579 ft 308 kts 91°
2026-04-23 18:49 60.37707 25.35264 8449 ft 311 kts 91°
2026-04-23 18:49 60.37623 25.39625 9295 ft 314 kts 93°
2026-04-23 18:50 60.37528 25.42552 9840 ft 317 kts 95°
2026-04-23 18:50 60.37246 25.48644 10463 ft 342 kts 97°
2026-04-23 18:50 60.36960 25.53564 10708 ft 366 kts 98°
2026-04-23 18:50 60.36647 25.58496 11110 ft 379 kts 98°
2026-04-23 18:51 60.36297 25.63778 11744 ft 385 kts 98°
2026-04-23 18:51 60.35939 25.69172 12420 ft 390 kts 98°
2026-04-23 18:51 60.35583 25.74597 13077 ft 394 kts 98°
2026-04-23 18:51 60.35226 25.80089 13763 ft 398 kts 98°
2026-04-23 18:52 60.34864 25.85647 14444 ft 401 kts 98°
2026-04-23 18:52 60.34501 25.91242 15096 ft 405 kts 98°
2026-04-23 18:52 60.34137 25.96859 15730 ft 408 kts 98°
2026-04-23 18:52 60.33767 26.02551 16338 ft 412 kts 98°
2026-04-23 18:53 60.33393 26.08258 16928 ft 415 kts 98°
2026-04-23 18:53 60.33024 26.13791 17473 ft 418 kts 98°
2026-04-23 18:53 60.32644 26.19363 17975 ft 421 kts 98°
2026-04-23 18:53 60.32244 26.25190 18509 ft 425 kts 98°
2026-04-23 18:54 60.31839 26.31091 19018 ft 428 kts 98°
2026-04-23 18:54 60.31434 26.37003 19524 ft 430 kts 98°
2026-04-23 18:54 60.31025 26.42913 19998 ft 433 kts 98°
2026-04-23 18:54 60.30606 26.48896 20464 ft 436 kts 98°
2026-04-23 18:55 60.30175 26.54998 20951 ft 439 kts 98°
2026-04-23 18:55 60.29753 26.60971 21417 ft 442 kts 98°
2026-04-23 18:55 60.29314 26.67170 21878 ft 445 kts 98°
2026-04-23 18:55 60.28883 26.73217 22316 ft 448 kts 98°
2026-04-23 18:56 60.28590 26.77307 22605 ft 450 kts 99°
2026-04-23 18:56 60.27983 26.85731 23186 ft 453 kts 99°
2026-04-23 18:56 60.27528 26.91996 23600 ft 456 kts 99°
2026-04-23 18:56 60.27079 26.98114 23991 ft 458 kts 99°
2026-04-23 18:57 60.26607 27.04542 24390 ft 461 kts 99°
2026-04-23 18:57 60.26142 27.10787 24770 ft 463 kts 99°
2026-04-23 18:57 60.25650 27.17329 25142 ft 466 kts 99°
2026-04-23 18:57 60.25171 27.23604 25497 ft 468 kts 99°
2026-04-23 18:58 60.24668 27.30193 25861 ft 471 kts 99°
2026-04-23 18:58 60.24216 27.36101 26189 ft 473 kts 99°
2026-04-23 18:58 60.23696 27.42848 26546 ft 475 kts 99°
2026-04-23 18:58 60.23219 27.49228 26880 ft 477 kts 98°
2026-04-23 18:59 60.22835 27.56087 27200 ft 480 kts 95°
2026-04-23 18:59 60.22580 27.62799 27513 ft 482 kts 94°
2026-04-23 18:59 60.22388 27.69550 27712 ft 484 kts 93°
2026-04-23 18:59 60.22209 27.76319 26883 ft 486 kts 93°
2026-04-23 19:00 60.22010 27.83123 26031 ft 484 kts 94°
2026-04-23 19:00 60.21782 27.89852 25261 ft 480 kts 94°
2026-04-23 19:00 60.21527 27.96507 24553 ft 475 kts 95°
2026-04-23 19:00 60.21254 28.03100 23866 ft 471 kts 95°
2026-04-23 19:01 60.20975 28.09618 23193 ft 466 kts 95°
2026-04-23 19:01 60.20699 28.16092 22523 ft 462 kts 95°
2026-04-23 19:01 60.20427 28.22498 21853 ft 458 kts 95°
2026-04-23 19:01 60.20162 28.28776 21243 ft 454 kts 95°
2026-04-23 19:02 60.19981 28.33031 20820 ft 451 kts 95°
2026-04-23 19:02 60.19627 28.41295 19989 ft 446 kts 95°
2026-04-23 19:02 60.19362 28.47475 19367 ft 442 kts 95°
2026-04-23 19:02 60.19093 28.53608 18734 ft 438 kts 95°
2026-04-23 19:03 60.18825 28.59673 18096 ft 434 kts 95°
2026-04-23 19:03 60.18516 28.65694 17476 ft 431 kts 97°
2026-04-23 19:03 60.18091 28.71599 16885 ft 427 kts 100°
2026-04-23 19:03 60.17579 28.77428 16290 ft 423 kts 101°
2026-04-23 19:04 60.17024 28.83200 15703 ft 420 kts 102°
2026-04-23 19:04 60.16482 28.88732 15134 ft 416 kts 102°
2026-04-23 19:04 60.15963 28.94122 14596 ft 414 kts 102°
2026-04-23 19:04 60.15438 28.99756 14041 ft 411 kts 101°
2026-04-23 19:05 60.14935 29.05321 13489 ft 408 kts 101°
2026-04-23 19:05 60.14440 29.10882 12920 ft 405 kts 101°
2026-04-23 19:05 60.13952 29.16340 12342 ft 401 kts 101°
2026-04-23 19:05 60.13458 29.21821 11751 ft 398 kts 101°
2026-04-23 19:06 60.12964 29.27262 11143 ft 396 kts 101°
2026-04-23 19:06 60.12470 29.32673 10560 ft 392 kts 101°
2026-04-23 19:06 60.11976 29.38028 9977 ft 389 kts 101°
2026-04-23 19:06 60.11490 29.43272 9777 ft 374 kts 101°
2026-04-23 19:07 60.11034 29.48187 9644 ft 347 kts 102°
2026-04-23 19:07 60.10609 29.52740 9486 ft 324 kts 102°
2026-04-23 19:07 60.10205 29.57053 9041 ft 315 kts 102°
2026-04-23 19:07 60.09807 29.61285 8694 ft 313 kts 102°
2026-04-23 19:08 60.09406 29.65524 8340 ft 311 kts 102°
2026-04-23 19:08 60.09020 29.69574 7963 ft 309 kts 102°
2026-04-23 19:08 60.08620 29.73777 7572 ft 308 kts 101°
2026-04-23 19:08 60.08236 29.77804 7202 ft 306 kts 102°
2026-04-23 19:09 60.07839 29.81955 6824 ft 304 kts 102°
2026-04-23 19:09 60.07440 29.86108 6385 ft 305 kts 102°
2026-04-23 19:09 60.07044 29.90225 6054 ft 302 kts 102°
2026-04-23 19:09 60.06645 29.94340 6000 ft 302 kts 102°
2026-04-23 19:10 60.06245 29.98439 5840 ft 300 kts 102°
2026-04-23 19:10 60.05870 30.02275 5454 ft 299 kts 102°
2026-04-23 19:10 60.05394 30.06267 5042 ft 297 kts 109°
2026-04-23 19:10 60.04776 30.10173 4634 ft 296 kts 109°
2026-04-23 19:11 60.04158 30.14065 4245 ft 294 kts 109°
2026-04-23 19:11 60.03543 30.17929 3848 ft 292 kts 109°
2026-04-23 19:11 60.02936 30.21760 3687 ft 289 kts 109°
2026-04-23 19:11 60.02330 30.25575 3711 ft 291 kts 110°
2026-04-23 19:12 60.01924 30.28118 3707 ft 291 kts 109°
2026-04-23 19:12 60.01100 30.33242 3706 ft 291 kts 110°
2026-04-23 19:12 60.00479 30.37099 3704 ft 292 kts 110°
2026-04-23 19:12 59.99894 30.40726 3709 ft 293 kts 110°
2026-04-23 19:13 59.99196 30.44510 3699 ft 290 kts 121°
2026-04-23 19:13 59.97975 30.47598 3709 ft 283 kts 143°
2026-04-23 19:13 59.96472 30.50099 3703 ft 282 kts 145°
2026-04-23 19:13 59.94982 30.52535 3701 ft 282 kts 145°
2026-04-23 19:14 59.93479 30.54981 3709 ft 281 kts 145°
2026-04-23 19:14 59.91975 30.57428 3701 ft 281 kts 145°
2026-04-23 19:14 59.90467 30.59883 3701 ft 281 kts 146°
2026-04-23 19:14 59.88965 30.62318 3700 ft 281 kts 145°
2026-04-23 19:15 59.87447 30.64779 3704 ft 282 kts 145°
2026-04-23 19:15 59.86006 30.67118 3630 ft 280 kts 145°
2026-04-23 19:15 59.84510 30.69545 3210 ft 279 kts 146°
2026-04-23 19:15 59.83038 30.71935 2927 ft 272 kts 146°
2026-04-23 19:16 59.81631 30.74261 2819 ft 260 kts 145°
2026-04-23 19:16 59.80285 30.76517 2698 ft 249 kts 145°
2026-04-23 19:16 59.78926 30.78326 2696 ft 230 kts 164°
2026-04-23 19:17 59.76109 30.78302 2701 ft 189 kts 222°
2026-04-23 19:17 59.75323 30.76421 2703 ft 175 kts 250°
2026-04-23 19:17 59.75091 30.74261 2700 ft 152 kts 269°
2026-04-23 19:17 59.75055 30.72280 2712 ft 142 kts 269°
2026-04-23 19:18 59.75023 30.70368 2724 ft 139 kts 271°
2026-04-23 19:18 59.74993 30.68478 2715 ft 138 kts 270°
2026-04-23 19:18 59.74959 30.66623 2710 ft 135 kts 268°
2026-04-23 19:18 59.74926 30.64762 2701 ft 135 kts 269°
2026-04-23 19:19 59.74864 30.61071 2702 ft 134 kts 269°
2026-04-23 19:19 59.74834 30.59226 2701 ft 134 kts 269°
2026-04-23 19:20 59.74998 30.55595 2701 ft 135 kts 282°
2026-04-23 19:20 59.75217 30.53907 2631 ft 134 kts 283°
2026-04-23 19:20 59.75461 30.52162 2503 ft 133 kts 283°
2026-04-23 19:20 59.75715 30.50417 2349 ft 133 kts 284°
2026-04-23 19:21 59.75974 30.48675 2186 ft 132 kts 283°
2026-04-23 19:21 59.76490 30.45230 1843 ft 131 kts 284°
2026-04-23 19:21 59.76743 30.43552 1671 ft 123 kts 284°
2026-04-23 19:22 59.76980 30.41977 1515 ft 118 kts 283°
2026-04-23 19:22 59.77212 30.40434 1362 ft 116 kts 283°
2026-04-23 19:22 59.77666 30.37412 1061 ft 114 kts 283°
2026-04-23 19:23 59.77890 30.35915 912 ft 114 kts 286°
2026-04-23 19:23 59.78106 30.34468 765 ft 116 kts 288°
2026-04-23 19:23 59.78342 30.32916 617 ft 120 kts 287°
2026-04-23 19:24 59.78838 30.29579 260 ft 125 kts 285°
2026-04-23 19:24 59.79074 30.28030 101 ft 122 kts 285°
2026-04-23 19:24 59.79398 30.25816 73 ft 49 kts 286°
2026-04-23 19:25 59.79562 30.24736 70 ft 38 kts 287°
2026-04-23 19:25 59.79711 30.23703 69 ft 40 kts 285°
2026-04-23 19:26 59.79925 30.23036 69 ft 16 kts 334°
2026-04-23 19:26 59.79960 30.23031 66 ft 0 kts 15°
2026-04-23 19:28 59.79961 30.23032 66 ft 2 kts 17°
2026-04-23 19:28 59.79912 30.23583 69 ft 28 kts 107°
2026-04-23 19:29 59.79859 30.23927 72 ft 21 kts 106°
2026-04-23 19:29 59.79784 30.24444 68 ft 18 kts 106°
2026-04-23 19:30 59.79705 30.24973 74 ft 25 kts 106°
2026-04-23 19:30 59.79651 30.25339 70 ft 30 kts 107°
2026-04-23 19:30 59.79528 30.26165 69 ft 26 kts 107°
2026-04-23 19:31 59.79533 30.26361 68 ft 13 kts 30°
2026-04-23 19:31 59.79641 30.26425 77 ft 19 kts 17°
2026-04-23 19:31 59.79787 30.26514 73 ft 20 kts 16°
2026-04-23 19:31 59.79874 30.26564 76 ft 9 kts 16°
2026-04-23 19:32 59.79884 30.26570 76 ft 0 kts 16°
2026-04-23 19:33 59.79885 30.26570 76 ft 2 kts 16°
2026-04-23 19:33 59.79983 30.26625 75 ft 11 kts 20°
2026-04-23 19:34 59.80046 30.26706 71 ft 9 kts 57°
2026-04-23 19:34 59.80059 30.26804 69 ft 5 kts 102°
2026-04-23 19:34 59.80058 30.26815 71 ft 0 kts 103°